Main page
Satellite images Climate Cyclones Lightning AirportsFAQ Languages Contact Newsletter About
Weather : Europe Africa North America South America Asia Australia-Oceania Others

yangon-mm, Yangon, Yangon International Airport

48097

latitude: , longitude: Myanmar, elevation: 16-46N m


METAR: VYYY 140400Z 05005KT 7000 FEW020 SCT200 29/23 Q1015